WATER LEVELS

Elbe

Guaranteed water level and forecast    Ústí nad Labem-Střekov

Guaranteed water level
225 cm
on 28.09.2022 more information
Forecast
220 cm
on 29.09.2022 07:00
Tendency
steady state
on 29.09.2022 metodika tendence
Forecast
238 cm
on 30.09.2022 07:00
(Source data ČHMÚ a Povodí Labe)

Ústí nad Labem

Date and time (UTC) H (cm) Q (m³/s)
28. 9. 2022 14:00 225 244
28. 9. 2022 13:00 227 248
28. 9. 2022 12:00 226 246
28. 9. 2022 11:00 226 246
28. 9. 2022 10:00 226 246
28. 9. 2022 09:00 233 261
28. 9. 2022 08:00 232 259
28. 9. 2022 07:00 231 257
28. 9. 2022 06:00 231 257
28. 9. 2022 05:00 231 257
28. 9. 2022 04:00 231 257
28. 9. 2022 03:00 231 257
28. 9. 2022 02:00 233 261

H - water level, Q - discharge
more information

Mělník

Date and time (UTC) H (cm) Q (m³/s)
28. 9. 2022 14:00 277 -
28. 9. 2022 13:00 276 -
28. 9. 2022 12:00 269 -
28. 9. 2022 11:00 267 -
28. 9. 2022 10:00 267 -
28. 9. 2022 09:00 269 -
28. 9. 2022 08:00 271 -
28. 9. 2022 07:00 271 -
28. 9. 2022 06:00 273 220
28. 9. 2022 05:00 277 -
28. 9. 2022 04:00 275 -
28. 9. 2022 03:00 270 -
28. 9. 2022 02:00 275 -

H - water level, Q - discharge
more information

Kostelec nad Labem

Date and time (UTC) H (cm) Q (m³/s)
28. 9. 2022 14:00 403 -
28. 9. 2022 13:00 403 -
28. 9. 2022 12:00 404 54
28. 9. 2022 11:00 403 56
28. 9. 2022 10:00 402 44
28. 9. 2022 09:00 402 41
28. 9. 2022 08:00 403 -
28. 9. 2022 07:00 404 54
28. 9. 2022 06:00 403 56
28. 9. 2022 05:00 402 51
28. 9. 2022 04:00 403 49
28. 9. 2022 03:00 404 56
28. 9. 2022 02:00 402 55

H - water level, Q - discharge
more information

Přelouč

Date and time (UTC) H (cm) Q (m³/s)
28. 9. 2022 14:00 58 26.7
28. 9. 2022 13:00 58 27
28. 9. 2022 12:00 54 24
28. 9. 2022 11:00 51 22
28. 9. 2022 10:00 51 22
28. 9. 2022 09:00 57 26
28. 9. 2022 08:00 58 27
28. 9. 2022 07:00 59 27
28. 9. 2022 06:00 52 23
28. 9. 2022 05:00 50 22
28. 9. 2022 04:00 54 24
28. 9. 2022 03:00 58 27
28. 9. 2022 02:00 58 27

H - water level, Q - discharge
more information


Vltava

Praha-Chuchle

Date and time (UTC) H (cm) Q (m³/s)
28. 9. 2022 14:00 73 158
28. 9. 2022 13:00 73 158
28. 9. 2022 12:00 73 158
28. 9. 2022 11:00 73 158
28. 9. 2022 10:00 72 153
28. 9. 2022 09:00 73 158
28. 9. 2022 08:00 73 158
28. 9. 2022 07:00 73 158
28. 9. 2022 06:00 73 158
28. 9. 2022 05:00 74 163
28. 9. 2022 04:00 74 163
28. 9. 2022 03:00 74 163
28. 9. 2022 02:00 75 168

H - water level, Q - discharge
more information

VD Orlík

Date and time (UTC) H (m n. m.) Q (m³/s)
28. 9. 2022 14:00 338.02 0
28. 9. 2022 13:00 337.99 0
28. 9. 2022 12:00 337.96 0
28. 9. 2022 11:00 337.94 182
28. 9. 2022 10:00 337.97 336
28. 9. 2022 09:00 338.06 501
28. 9. 2022 08:00 338.15 541
28. 9. 2022 07:00 338.25 218
28. 9. 2022 06:00 338.24 26
28. 9. 2022 05:00 338.23 0
28. 9. 2022 04:00 338.21 0
28. 9. 2022 03:00 338.19 0
28. 9. 2022 02:00 338.17 0

H - water level, Q - outflow

VD Kořensko

Date and time (UTC) H (m n. m.) Q (m³/s)
28. 9. 2022 14:00 352.48 43.1
28. 9. 2022 13:00 352.48 78
28. 9. 2022 12:00 352.54 79
28. 9. 2022 11:00 352.59 81
28. 9. 2022 10:00 352.63 81
28. 9. 2022 09:00 352.63 70
28. 9. 2022 08:00 352.59 70
28. 9. 2022 07:00 352.56 70
28. 9. 2022 06:00 352.54 55
28. 9. 2022 05:00 352.53 55
28. 9. 2022 04:00 352.52 55
28. 9. 2022 03:00 352.51 55
28. 9. 2022 02:00 352.51 64

H - water level, Q - outflow

České Budějovice

Date and time (UTC) H (cm) Q (m³/s)
28. 9. 2022 14:00 100 18.9
28. 9. 2022 13:00 101 21
28. 9. 2022 12:00 102 21
28. 9. 2022 11:00 101 19
28. 9. 2022 10:00 101 20
28. 9. 2022 09:00 101 20
28. 9. 2022 08:00 100 20
28. 9. 2022 07:00 102 20
28. 9. 2022 06:00 100 20
28. 9. 2022 05:00 101 20
28. 9. 2022 04:00 101 20
28. 9. 2022 03:00 101 20
28. 9. 2022 02:00 100 20

H - water level, Q - discharge
more information


Morava

Strážnice

Date and time (UTC) H (cm) Q (m³/s)
28. 9. 2022 14:00 128 28
28. 9. 2022 13:00 128 28
28. 9. 2022 12:00 129 29
28. 9. 2022 11:00 130 29
28. 9. 2022 10:00 130 29
28. 9. 2022 09:00 131 30
28. 9. 2022 08:00 131 30
28. 9. 2022 07:00 132 30
28. 9. 2022 06:00 132 30
28. 9. 2022 05:00 132 30
28. 9. 2022 04:00 132 30
28. 9. 2022 03:00 133 31
28. 9. 2022 02:00 133 31

H - water level, Q - discharge
more information

Kroměříž

Date and time (UTC) H (cm) Q (m³/s)
28. 9. 2022 14:00 163 37.6
28. 9. 2022 13:00 160 35
28. 9. 2022 12:00 155 31
28. 9. 2022 11:00 150 28
28. 9. 2022 10:00 148 26
28. 9. 2022 09:00 146 25
28. 9. 2022 08:00 145 24
28. 9. 2022 07:00 144 23
28. 9. 2022 06:00 144 23
28. 9. 2022 05:00 145 24
28. 9. 2022 04:00 145 24
28. 9. 2022 03:00 146 25
28. 9. 2022 02:00 147 26

H - water level, Q - discharge
more information
Source data
Labe Basin Vltava Basin Povodí Moravy ČHMÚ